Simultaneous Nadir Overpasses (SNOs) Predictions

Prediction of SNOs between GOES-15 and METOP-B Satellite Orbit:

Table of predicted SNOs for the next 14.0 days since TLE Epoch: 3/17/2018
Index Date Time (GOES-15) GOES-15 Lat,Lon METOP-B Lat,Lon Distance(km) Time Diff (sec)
1 03/18/2018 06:29:56 -0.00,-134.95 0.04,-134.71 27.42 80
2 03/19/2018 18:46:08 -0.00,-134.91 0.98,-139.27 497.30 80
3 03/20/2018 18:28:08 0.00,-134.87 -0.15,-134.28 67.66 80
4 03/22/2018 06:44:28 0.01,-134.79 -0.91,-138.87 464.83 80
5 03/23/2018 06:26:28 0.00,-134.74 0.22,-133.87 99.52 80
6 03/24/2018 18:42:38 -0.01,-134.68 0.85,-138.43 426.86 80
7 03/25/2018 18:24:39 -0.01,-134.64 -0.28,-133.43 137.03 80
8 03/27/2018 06:40:58 0.02,-134.55 -0.78,-138.02 396.84 80
9 03/28/2018 06:22:59 0.01,-134.49 0.35,-133.03 166.90 80
10 03/29/2018 18:39:09 -0.02,-134.43 0.71,-137.58 360.03 80
11 03/30/2018 18:21:10 -0.01,-134.38 -0.42,-132.59 203.64 80




NCC Satellite Simultaneous Nadir Overpasses (SNOs) Prediction Service
